This is the latest recevied weather packets stored in our database for station/object CT7BNL-13. If no packets are shown the sender has not sent any weather packets the latest 10 day(s).
| Time | Temp. | Humidity | Pressure | Rain* | Wind** | Luminosity | Snow |
|---|---|---|---|---|---|---|---|
| 1788090565 | 23.89° C | 66% | 1027.4 hPa | 0 mm | - | 301 W/m² | - |
| 1788089666 | 23.33° C | 70% | 1027.7 hPa | 0 mm | - | 1042 W/m² | - |
| 1788088765 | 21.67° C | 76% | 1027.9 hPa | 0 mm | - | 437 W/m² | - |
| 1788087865 | 21.67° C | 76% | 1027.9 hPa | 0 mm | - | 398 W/m² | - |
| 1788086966 | 22.22° C | 75% | 1028 hPa | 0 mm | - | 410 W/m² | - |
| 1788086064 | 21.11° C | 76% | 1028 hPa | 0 mm | - | 337 W/m² | - |
| 1788085166 | 21.11° C | 78% | 1027.5 hPa | 0 mm | - | 208 W/m² | - |
| 1788084265 | 21.11° C | 78% | 1027.7 hPa | 0 mm | - | 305 W/m² | - |
| 1788083365 | 20° C | 82% | 1027.4 hPa | 0 mm | - | 247 W/m² | - |
| 1788082466 | 20° C | 82% | 1027.4 hPa | 0 mm | - | 189 W/m² | - |
| 1788081566 | 20.56° C | 81% | 1027.2 hPa | 0 mm | - | 191 W/m² | - |
| 1788080665 | 20.56° C | 80% | 1027.3 hPa | 0 mm | - | 196 W/m² | - |
| 1788079764 | 21.11° C | 78% | 1026.6 hPa | 0 mm | - | 277 W/m² | - |
| 1788078865 | 20.56° C | 80% | 1027.1 hPa | 0 mm | - | 247 W/m² | - |
| 1788077965 | 20° C | 82% | 1026.8 hPa | 0 mm | - | 203 W/m² | - |
| 1788077066 | 18.89° C | 86% | 1026.8 hPa | 0 mm | - | 188 W/m² | - |
| 1788076165 | 18.33° C | 90% | 1026.6 hPa | 0 mm | - | 142 W/m² | - |
| 1788075264 | 17.78° C | 91% | 1026.7 hPa | 0 mm | - | 115 W/m² | - |
| 1788074365 | 17.78° C | 93% | 1026.8 hPa | 0 mm | - | 98 W/m² | - |
| 1788073465 | 17.22° C | 93% | 1026.3 hPa | 0 mm | - | 58 W/m² | - |
| 1788072564 | 17.22° C | 94% | 1026.5 hPa | 0 mm | - | 46 W/m² | - |
| 1788071665 | 16.67° C | 96% | 1026.2 hPa | 0 mm | - | 29 W/m² | - |
| 1788070764 | 16.67° C | 96% | 1026.2 hPa | 0 mm | - | 14 W/m² | - |
| 1788069864 | 16.67° C | 96% | 1026.3 hPa | 0 mm | - | 5 W/m² | - |
| 1788068965 | 16.67° C | 96% | 1026 hPa | 0 mm | - | 0 W/m² | - |
* Rain latest hour (hover to see other rain measurements)
** Current wind speed in m/s (hover to see current wind gust speed)